Total_Precipitation_Accumulation
0.05 0.06 0.06 0.06 0.07 0.08 0.09 0.10 0.12 0.15 0.16 0.17 0.19 0.19 0.17 0.17 0.16 0.16 0.16 0.17 0.18 0.18 0.19 0.21 0.23 0.23 0.25 0.27 0.31 0.37 0.42 0.48 0.53 0.47 0.42 0.42 0.43 0.41 0.40 0.35 0.32 0.30 0.29
0.05 0.06 0.06 0.06 0.06 0.06 0.07 0.07 0.09 0.11 0.12 0.13 0.13 0.12 0.10 0.10 0.10 0.11 0.13 0.13 0.14 0.15 0.17 0.19 0.21 0.23 0.26 0.28 0.31 0.34 0.37 0.39 0.42 0.41 0.36 0.34 0.33 0.30 0.26 0.22 0.18 0.16 0.15
0.06 0.07 0.08 0.08 0.08 0.08 0.09 0.09 0.09 0.09 0.10 0.09 0.08 0.07 0.07 0.08 0.09 0.10 0.11 0.11 0.13 0.15 0.17 0.19 0.21 0.24 0.27 0.28 0.29 0.31 0.32 0.31 0.31 0.31 0.28 0.24 0.21 0.19 0.16 0.13 0.10 0.08 0.07
0.07 0.09 0.10 0.11 0.12 0.13 0.12 0.11 0.11 0.09 0.09 0.08 0.07 0.06 0.07 0.07 0.09 0.10 0.11 0.12 0.15 0.17 0.19 0.21 0.24 0.26 0.27 0.28 0.29 0.30 0.28 0.26 0.23 0.23 0.23 0.22 0.18 0.14 0.11 0.08 0.06 0.05 0.04
0.13 0.13 0.14 0.14 0.14 0.14 0.13 0.12 0.10 0.08 0.07 0.07 0.07 0.09 0.09 0.10 0.12 0.13 0.15 0.18 0.22 0.25 0.27 0.29 0.30 0.32 0.31 0.28 0.25 0.22 0.19 0.18 0.21 0.26 0.27 0.20 0.12 0.08 0.06 0.05 0.04 0.04 0.03
0.16 0.15 0.15 0.15 0.14 0.13 0.11 0.10 0.09 0.09 0.10 0.12 0.13 0.16 0.19 0.22 0.31 0.27 0.23 0.23 0.27 0.29 0.30 0.30 0.29 0.28 0.25 0.23 0.20 0.18 0.19 0.23 0.30 0.32 0.23 0.12 0.06 0.05 0.04 0.05 0.07 0.09 0.06
0.17 0.15 0.15 0.16 0.16 0.15 0.13 0.15 0.20 0.23 0.25 0.28 0.30 0.32 0.35 0.42 0.47 0.40 0.36 0.31 0.31 0.31 0.29 0.26 0.23 0.20 0.18 0.14 0.12 0.13 0.16 0.19 0.20 0.15 0.07 0.03 0.03 0.04 0.08 0.13 0.12 0.13 0.08
0.29 0.25 0.21 0.22 0.26 0.31 0.35 0.38 0.44 0.51 0.55 0.57 0.59 0.56 0.53 0.52 0.50 0.42 0.37 0.32 0.30 0.26 0.21 0.16 0.13 0.10 0.08 0.08 0.09 0.14 0.11 0.08 0.04 0.02 0.02 0.02 0.03 0.04 0.08 0.15 0.14 0.10 0.03
0.37 0.39 0.39 0.41 0.48 0.53 0.60 0.65 0.67 0.72 0.72 0.68 0.65 0.60 0.53 0.46 0.38 0.29 0.21 0.17 0.16 0.13 0.10 0.07 0.06 0.05 0.06 0.10 0.15 0.17 0.07 0.01 0.01 0.02 0.03 0.03 0.03 0.03 0.03 0.10 0.15 0.15 0.09
0.49 0.54 0.55 0.57 0.60 0.62 0.63 0.63 0.60 0.60 0.58 0.50 0.45 0.39 0.33 0.28 0.21 0.15 0.11 0.08 0.07 0.05 0.03 0.02 0.03 0.03 0.07 0.13 0.13 0.09 0.02 0.01 0.02 0.01 0.00 0.00 0.00 0.00 0.01 0.07 0.20 0.35 0.26
0.59 0.63 0.64 0.61 0.58 0.54 0.47 0.40 0.36 0.33 0.28 0.25 0.22 0.18 0.15 0.11 0.09 0.06 0.04 0.03 0.02 0.02 0.01 0.01 0.01 0.04 0.10 0.12 0.07 0.02 0.02 0.05 0.03 0.00 0.00 0.00 0.00 0.00 0.00 0.01 0.08 0.35 0.51
0.46 0.42 0.39 0.34 0.30 0.27 0.23 0.20 0.17 0.15 0.13 0.11 0.08 0.07 0.05 0.03 0.02 0.02 0.01 0.02 0.02 0.02 0.01 0.01 0.02 0.07 0.08 0.04 0.01 0.01 0.03 0.03 0.00 0.00 0.00 0.00 0.01 0.01 0.00 0.01 0.02 0.06 0.21
0.16 0.13 0.12 0.11 0.11 0.10 0.10 0.09 0.07 0.06 0.05 0.04 0.03 0.02 0.01 0.01 0.01 0.00 0.00 0.02 0.03 0.03 0.03 0.04 0.06 0.04 0.01 0.00 0.00 0.01 0.01 0.00 0.01 0.03 0.02 0.01 0.01 0.01 0.01 0.02 0.01 0.01 0.02
0.04 0.04 0.04 0.04 0.04 0.04 0.03 0.03 0.02 0.02 0.02 0.01 0.01 0.01 0.01 0.01 0.01 0.01 0.01 0.01 0.02 0.02 0.03 0.03 0.02 0.00 0.00 0.00 0.00 0.00 0.00 0.00 0.04 0.06 0.04 0.02 0.01 0.01 0.02 0.03 0.05 0.05 0.06
0.04 0.04 0.04 0.05 0.05 0.05 0.04 0.04 0.03 0.03 0.03 0.02 0.01 0.01 0.01 0.01 0.01 0.03 0.03 0.03 0.03 0.03 0.03 0.01 0.00 0.00 0.00 0.00 0.00 0.00 0.00 0.01 0.02 0.03 0.05 0.05 0.03 0.02 0.02 0.02 0.07 0.11 0.13
0.05 0.06 0.06 0.06 0.06 0.05 0.05 0.05 0.06 0.05 0.05 0.05 0.03 0.02 0.02 0.02 0.03 0.03 0.04 0.04 0.04 0.04 0.02 0.01 0.00 0.00 0.00 0.01 0.01 0.01 0.01 0.02 0.03 0.05 0.06 0.08 0.09 0.08 0.06 0.03 0.06 0.13 0.15
0.06 0.07 0.08 0.08 0.08 0.08 0.08 0.07 0.07 0.08 0.09 0.07 0.06 0.05 0.04 0.03 0.04 0.04 0.04 0.04 0.03 0.02 0.02 0.01 0.01 0.01 0.01 0.02 0.03 0.04 0.03 0.02 0.04 0.07 0.10 0.12 0.15 0.12 0.09 0.08 0.08 0.11 0.11
0.06 0.08 0.08 0.08 0.08 0.09 0.09 0.09 0.08 0.07 0.07 0.06 0.07 0.08 0.07 0.06 0.05 0.05 0.05 0.04 0.03 0.02 0.01 0.01 0.02 0.02 0.02 0.04 0.05 0.06 0.05 0.04 0.05 0.07 0.09 0.13 0.17 0.18 0.14 0.12 0.13 0.16 0.19
0.08 0.08 0.09 0.09 0.09 0.10 0.10 0.10 0.09 0.08 0.07 0.06 0.07 0.08 0.10 0.11 0.10 0.08 0.07 0.05 0.03 0.02 0.01 0.02 0.02 0.03 0.04 0.06 0.07 0.07 0.08 0.08 0.08 0.12 0.13 0.15 0.20 0.24 0.18 0.13 0.15 0.14 0.17
0.09 0.12 0.13 0.12 0.11 0.11 0.11 0.11 0.10 0.09 0.08 0.07 0.07 0.07 0.11 0.13 0.10 0.07 0.06 0.05 0.04 0.03 0.03 0.03 0.03 0.04 0.07 0.09 0.09 0.09 0.10 0.09 0.10 0.13 0.14 0.17 0.20 0.25 0.26 0.20 0.18 0.20 0.18
0.10 0.13 0.17 0.14 0.11 0.10 0.11 0.12 0.12 0.11 0.10 0.08 0.07 0.09 0.13 0.12 0.09 0.07 0.06 0.06 0.05 0.05 0.04 0.05 0.06 0.08 0.10 0.11 0.11 0.11 0.10 0.10 0.13 0.18 0.19 0.19 0.21 0.22 0.20 0.22 0.22 0.25 0.26
0.10 0.12 0.13 0.13 0.12 0.14 0.15 0.15 0.14 0.12 0.10 0.09 0.08 0.10 0.15 0.12 0.07 0.05 0.05 0.05 0.05 0.06 0.06 0.08 0.09 0.09 0.15 0.21 0.24 0.23 0.16 0.11 0.12 0.18 0.20 0.18 0.19 0.22 0.25 0.28 0.28 0.28 0.26
0.11 0.12 0.13 0.13 0.13 0.16 0.17 0.14 0.13 0.12 0.11 0.10 0.09 0.10 0.11 0.11 0.08 0.06 0.05 0.05 0.06 0.07 0.07 0.09 0.11 0.10 0.12 0.19 0.27 0.39 0.41 0.28 0.22 0.28 0.41 0.42 0.37 0.38 0.38 0.35 0.29 0.26 0.21
0.10 0.11 0.12 0.13 0.14 0.15 0.15 0.14 0.13 0.12 0.12 0.11 0.11 0.10 0.10 0.10 0.09 0.08 0.07 0.07 0.07 0.07 0.08 0.10 0.13 0.14 0.15 0.21 0.26 0.31 0.38 0.44 0.62 0.75 0.81 0.82 0.61 0.43 0.37 0.32 0.26 0.25 0.22
0.10 0.11 0.13 0.14 0.15 0.15 0.15 0.15 0.14 0.13 0.12 0.12 0.12 0.11 0.11 0.10 0.10 0.09 0.08 0.08 0.08 0.07 0.07 0.10 0.14 0.17 0.18 0.20 0.24 0.27 0.28 0.42 0.67 0.81 0.75 0.63 0.48 0.36 0.34 0.32 0.27 0.25 0.22
0.11 0.12 0.14 0.15 0.15 0.15 0.15 0.14 0.13 0.13 0.12 0.11 0.11 0.11 0.10 0.10 0.09 0.08 0.08 0.08 0.08 0.08 0.07 0.08 0.11 0.16 0.20 0.20 0.17 0.20 0.31 0.40 0.40 0.37 0.51 0.57 0.48 0.36 0.34 0.38 0.32 0.28 0.25